Regional Weather Roundup
Issued by NWS

Home | Current Version | Previous Version | Graphics & Text | Print | Product List | Glossary Off
Versions: 1 2 3 4 5 6 7 8 9 10 11 12 13 14 15 16 17 18 19 20 21 22 23 24 25 26 27 28 29 30 31 32 33 34 35 36 37 38 39 40 41 42 43 44 45 46 47 48 49 50

000
ASUS43 KFSD 280610
RWRSD

WEATHER ROUNDUP FOR SOUTH DAKOTA
NATIONAL WEATHER SERVICE SIOUX FALLS SD
100 AM CDT WED SEP 28 2016

NOTE: "FAIR" INDICATES FEW OR NO CLOUDS BELOW 12,000 FEET WITH NO
SIGNIFICANT WEATHER AND/OR OBSTRUCTIONS TO VISIBILITY.


SDZ001>005-009-010-012>017-280700-
NORTHWEST AND NORTH CENTRAL SOUTH DAKOTA

CITY           SKY/WX    TMP DP  RH WIND       PRES   REMARKS
BUFFALO          N/A     61  46  57 W6        30.01R
FAITH            N/A     55  43  63 SE10      30.06R
MOBRIDGE       CLEAR     46  38  73 NE5       30.03R
$$

SDZ012>016-024>037-041>051-057-063-072>074-280700-
SOUTHWEST AND SOUTH CENTRAL SOUTH DAKOTA

CITY           SKY/WX    TMP DP  RH WIND       PRES   REMARKS
RAPID CTY ARPT CLEAR     55  41  59 NW10      30.10R
PIERRE         CLEAR     51  41  68 CALM      30.02R
CUSTER         CLEAR     48  35  60 NW6       30.23R
ELLSWORTH AFB  CLEAR     55  41  60 W7        30.09R
PHILIP         CLEAR     47  41  80 CALM      30.05R
PINE RIDGE     CLEAR     42  38  85 CALM      30.10R
WINNER         FAIR      58  43  57 E5        30.03R
$$

SDZ004>011-016>023-039-040-280700-
NORTHEAST SOUTH DAKOTA

CITY           SKY/WX    TMP DP  RH WIND       PRES   REMARKS
ABERDEEN       CLOUDY    42  36  79 N6        30.04R
WATERTOWN      CLEAR     43  40  89 N6        30.01R
BROOKINGS      CLEAR     44  40  85 N7        29.99R
SISSETON         N/A     49  44  83 N6        30.02R
$$

SDZ017-020-022-023-036>040-048>070-280700-
SOUTHEAST SOUTH DAKOTA

CITY           SKY/WX    TMP DP  RH WIND       PRES   REMARKS
SIOUX FALLS    CLEAR     48  38  68 N8        29.98R
HURON          CLOUDY    47  35  63 NE6       30.01R
CHAMBERLAIN    CLEAR     58  42  56 N3        30.02R
MITCHELL       CLEAR     49  37  63 NW5       30.00R
YANKTON        CLEAR     48  41  76 NW9       29.96R
$$

ABBREVIATIONS USED IN REMARKS
   TC - TEMPERATURE IN CELSIUS
  WCI - WIND CHILL INDEX
   HX - HEAT INDEX
  VSB - VISIBILITY




USA.gov is the U.S. government's official web portal to all federal, state and local government web resources and services.